Location: Cerezo de Arriba
(41.2389°N, 3.5585°W)
Time: 04:19:55
(UTC+00:00)

Meteor 2-2 Rocket - Pass Details

Date: 19 May 2025
Orbit: 851 x 927 km, 81.3° (Epoch: 23 June)

Event Time Altitude Azimuth Distance (km) Brightness Sun altitude
Exits shadow 20:57:32 13° 169° (SSE) 2,328 6.0 -14.2°
Maximum altitude 21:02:35 55° 94° (E) 1,082 4.5 -14.9°
Drops below altitude 10° 21:08:24 10° 18° (NNE) 2,625 7.1 -15.6°
Sets 21:10:57 0° 15° (NNE) 3,578 7.9 -16.0°
